Time,TemperatureF,DewpointF,PressureIn,WindDirection,WindDirectionDegrees,WindSpeedMPH,WindSpeedGustMPH,Humidity,HourlyPrecipIn,Conditions,Clouds,dailyrainin,SoftwareType,DateUTC
2013-01-03 00:00:00,62.4,61.8,30.05,SSE,151,0.0,1.1,98,0.00,,,0.00,WeatherDisplay:10.37,2013-01-03 05:00:00,
2013-01-03 00:02:00,62.3,61.7,30.04,SSW,193,0.0,1.1,98,0.00,,,0.00,WeatherDisplay:10.37,2013-01-03 05:02:00,
2013-01-03 00:03:00,62.3,61.7,30.04,South,188,0.0,0.0,98,0.00,,,0.00,WeatherDisplay:10.37,2013-01-03 05:03:00,
2013-01-03 00:08:00,62.3,61.7,30.04,South,188,0.0,0.0,98,0.00,,,0.00,WeatherDisplay:10.37,2013-01-03 05:08:00,
2013-01-03 00:13:00,62.2,61.6,30.04,SE,141,0.4,1.1,98,0.00,,,0.00,WeatherDisplay:10.37,2013-01-03 05:13:00,
2013-01-03 00:18:00,62.1,61.5,30.04,SE,144,0.0,1.1,98,0.00,,,0.00,WeatherDisplay:10.37,2013-01-03 05:18:00,
2013-01-03 00:23:00,62.0,61.4,30.04,SE,124,0.1,0.0,98,0.00,,,0.00,WeatherDisplay:10.37,2013-01-03 05:23:00,
2013-01-03 00:28:00,61.9,61.3,30.04,SE,131,0.0,0.0,98,0.00,,,0.00,WeatherDisplay:10.37,2013-01-03 05:28:00,
2013-01-03 00:33:00,61.8,61.2,30.04,SE,139,0.3,1.0,98,0.00,,,0.00,WeatherDisplay:10.37,2013-01-03 05:33:00,
2013-01-03 00:38:00,61.6,61.0,30.04,SSE,155,0.0,0.0,98,0.00,,,0.00,WeatherDisplay:10.37,2013-01-03 05:38:00,
2013-01-03 00:43:00,61.6,61.0,30.04,SSE,148,0.0,0.0,98,0.00,,,0.00,WeatherDisplay:10.37,2013-01-03 05:43:00,
2013-01-03 00:48:00,61.6,61.0,30.04,SSE,148,0.0,0.0,98,0.00,,,0.00,WeatherDisplay:10.37,2013-01-03 05:48:00,
2013-01-03 00:53:00,61.5,60.9,30.04,SSE,148,0.0,0.0,98,0.00,,,0.00,WeatherDisplay:10.37,2013-01-03 05:53:00,
2013-01-03 00:58:00,61.4,60.8,30.04,SSE,148,0.0,0.0,98,0.00,,,0.00,WeatherDisplay:10.37,2013-01-03 05:58:00,
2013-01-03 01:03:00,61.3,60.7,30.04,SSE,150,0.0,0.0,98,0.00,,,0.00,WeatherDisplay:10.37,2013-01-03 06:03:00,
2013-01-03 01:08:00,61.2,60.6,30.04,SE,124,0.1,1.0,98,0.00,,,0.00,WeatherDisplay:10.37,2013-01-03 06:08:00,
2013-01-03 01:13:00,61.1,60.5,30.04,SE,136,0.0,1.1,98,0.00,,,0.00,WeatherDisplay:10.37,2013-01-03 06:13:00,
2013-01-03 01:18:00,61.0,60.4,30.03,SE,127,0.1,1.1,98,0.00,,,0.00,WeatherDisplay:10.37,2013-01-03 06:18:00,
2013-01-03 01:23:00,60.9,60.6,30.04,SE,127,0.0,0.0,99,0.00,,,0.00,WeatherDisplay:10.37,2013-01-03 06:23:00,
2013-01-03 01:28:00,60.9,60.6,30.03,SE,127,0.0,0.0,99,0.00,,,0.00,WeatherDisplay:10.37,2013-01-03 06:28:00,
2013-01-03 01:33:00,60.8,60.5,30.03,SE,127,0.0,0.0,99,0.00,,,0.00,WeatherDisplay:10.37,2013-01-03 06:33:00,
2013-01-03 01:38:00,60.7,60.4,30.03,SE,127,0.0,0.0,99,0.00,,,0.00,WeatherDisplay:10.37,2013-01-03 06:38:00,
2013-01-03 01:43:00,60.8,60.5,30.03,SE,127,0.0,0.0,99,0.00,,,0.00,WeatherDisplay:10.37,2013-01-03 06:43:00,
2013-01-03 01:48:00,60.7,60.4,30.03,SE,127,0.0,0.0,99,0.00,,,0.00,WeatherDisplay:10.37,2013-01-03 06:48:00,
2013-01-03 01:53:00,60.8,60.5,30.03,SE,127,0.0,0.0,99,0.00,,,0.00,WeatherDisplay:10.37,2013-01-03 06:53:00,
2013-01-03 01:58:00,60.9,60.6,30.03,SE,125,0.0,1.1,99,0.00,,,0.00,WeatherDisplay:10.37,2013-01-03 06:58:00,
2013-01-03 02:03:00,60.9,60.6,30.03,SE,125,0.0,0.0,99,0.00,CLR,,0.00,WeatherDisplay:10.37,2013-01-03 07:03:00,
2013-01-03 02:08:00,61.0,60.7,30.03,SE,126,0.0,0.0,99,0.00,CLR,,0.00,WeatherDisplay:10.37,2013-01-03 07:08:00,
2013-01-03 02:13:00,60.9,60.6,30.03,SE,126,0.0,0.0,99,0.00,CLR,,0.00,WeatherDisplay:10.37,2013-01-03 07:13:00,
2013-01-03 02:18:00,60.8,60.5,30.03,SE,126,0.0,0.0,99,0.00,CLR,,0.00,WeatherDisplay:10.37,2013-01-03 07:18:00,
2013-01-03 02:23:00,60.9,60.6,30.03,SE,125,0.0,0.0,99,0.00,CLR,,0.00,WeatherDisplay:10.37,2013-01-03 07:23:00,
2013-01-03 02:28:00,61.1,60.8,30.03,SE,125,0.0,0.0,99,0.00,CLR,,0.00,WeatherDisplay:10.37,2013-01-03 07:28:00,
2013-01-03 02:33:00,61.3,61.0,30.03,SE,126,0.0,0.0,99,0.00,CLR,,0.00,WeatherDisplay:10.37,2013-01-03 07:33:00,
2013-01-03 02:38:00,61.4,61.1,30.03,SE,126,0.0,0.0,99,0.00,CLR,,0.00,WeatherDisplay:10.37,2013-01-03 07:38:00,
2013-01-03 02:43:00,61.6,61.3,30.03,SE,125,0.0,0.0,99,0.00,CLR,,0.00,WeatherDisplay:10.37,2013-01-03 07:43:00,
2013-01-03 02:48:00,61.7,61.4,30.02,SE,125,0.0,0.0,99,0.00,CLR,,0.00,WeatherDisplay:10.37,2013-01-03 07:48:00,
2013-01-03 02:53:00,61.9,61.6,30.02,SE,126,0.0,0.0,99,0.00,CLR,,0.00,WeatherDisplay:10.37,2013-01-03 07:53:00,
2013-01-03 02:58:00,62.0,61.7,30.02,SE,126,0.0,0.0,99,0.00,CLR,,0.00,WeatherDisplay:10.37,2013-01-03 07:58:00,
2013-01-03 03:03:00,62.2,61.9,30.02,SE,124,0.0,0.0,99,0.00,CLR,,0.00,WeatherDisplay:10.37,2013-01-03 08:03:00,
2013-01-03 03:08:00,62.3,62.0,30.02,SE,124,0.0,0.0,99,0.00,CLR,,0.00,WeatherDisplay:10.37,2013-01-03 08:08:00,
2013-01-03 03:13:00,62.4,62.1,30.02,SE,124,0.0,0.0,99,0.00,CLR,,0.00,WeatherDisplay:10.37,2013-01-03 08:13:00,
2013-01-03 03:18:00,62.6,62.3,30.02,SE,124,0.0,0.0,99,0.00,CLR,,0.00,WeatherDisplay:10.37,2013-01-03 08:18:00,
2013-01-03 03:23:00,62.6,62.3,30.02,SE,124,0.0,0.0,99,0.00,CLR,,0.00,WeatherDisplay:10.37,2013-01-03 08:23:00,
2013-01-03 03:28:00,62.7,62.4,30.03,SE,124,0.0,0.0,99,0.00,CLR,,0.00,WeatherDisplay:10.37,2013-01-03 08:28:00,
2013-01-03 03:33:00,62.8,62.5,30.03,SE,124,0.0,0.0,99,0.00,CLR,,0.00,WeatherDisplay:10.37,2013-01-03 08:33:00,
2013-01-03 03:38:00,62.9,62.6,30.02,SE,124,0.0,0.0,99,0.00,CLR,,0.00,WeatherDisplay:10.37,2013-01-03 08:38:00,
2013-01-03 03:43:00,63.0,62.7,30.02,SE,124,0.0,0.0,99,0.00,CLR,,0.00,WeatherDisplay:10.37,2013-01-03 08:43:00,
2013-01-03 03:48:00,63.1,62.8,30.02,SE,124,0.0,0.0,99,0.00,CLR,,0.00,WeatherDisplay:10.37,2013-01-03 08:48:00,
2013-01-03 03:53:00,63.2,62.9,30.02,SE,125,0.0,0.0,99,0.00,CLR,,0.00,WeatherDisplay:10.37,2013-01-03 08:53:00,
2013-01-03 03:58:00,63.2,62.9,30.02,SE,124,0.2,1.1,99,0.00,CLR,,0.00,WeatherDisplay:10.37,2013-01-03 08:58:00,
2013-01-03 04:03:00,63.3,63.0,30.02,ESE,121,0.0,0.0,99,0.00,CLR,,0.00,WeatherDisplay:10.37,2013-01-03 09:03:00,
2013-01-03 04:08:00,63.3,63.0,30.02,ESE,121,0.2,1.1,99,0.00,CLR,,0.00,WeatherDisplay:10.37,2013-01-03 09:08:00,
2013-01-03 04:13:00,63.4,63.1,30.02,ESE,105,0.0,1.1,99,0.00,CLR,,0.00,WeatherDisplay:10.37,2013-01-03 09:13:00,
2013-01-03 04:18:00,63.5,63.2,30.02,ESE,120,0.1,0.0,99,0.00,CLR,,0.00,WeatherDisplay:10.37,2013-01-03 09:18:00,
2013-01-03 04:23:00,63.6,63.3,30.02,ESE,117,0.0,0.0,99,0.00,CLR,,0.00,WeatherDisplay:10.37,2013-01-03 09:23:00,
2013-01-03 04:28:00,63.6,63.3,30.02,ESE,116,0.0,1.1,99,0.01,RA,,0.01,WeatherDisplay:10.37,2013-01-03 09:28:00,
2013-01-03 04:33:00,63.6,63.3,30.02,ESE,117,0.1,1.1,99,0.01,CLR,,0.01,WeatherDisplay:10.37,2013-01-03 09:33:00,
2013-01-03 04:38:00,63.7,63.4,30.02,ESE,117,0.0,0.0,99,0.01,CLR,,0.01,WeatherDisplay:10.37,2013-01-03 09:38:00,
2013-01-03 04:43:00,63.8,63.5,30.01,ESE,116,0.2,1.1,99,0.01,CLR,,0.01,WeatherDisplay:10.37,2013-01-03 09:43:00,
2013-01-03 04:48:00,63.9,63.6,30.01,SE,141,0.0,1.1,99,0.01,CLR,,0.01,WeatherDisplay:10.37,2013-01-03 09:48:00,
2013-01-03 04:53:00,63.9,63.6,30.02,SE,128,0.0,0.0,99,0.01,CLR,,0.01,WeatherDisplay:10.37,2013-01-03 09:53:00,
2013-01-03 04:58:00,63.9,63.6,30.02,SE,130,0.0,0.0,99,0.01,CLR,,0.01,WeatherDisplay:10.37,2013-01-03 09:58:00,
2013-01-03 05:03:00,63.9,63.6,30.03,SE,130,0.0,0.0,99,0.01,CLR,,0.01,WeatherDisplay:10.37,2013-01-03 10:03:00,
2013-01-03 05:08:00,63.8,63.5,30.02,SE,130,0.1,0.0,99,0.01,CLR,,0.01,WeatherDisplay:10.37,2013-01-03 10:08:00,
2013-01-03 05:13:00,63.7,63.4,30.02,SSE,156,0.5,0.0,99,0.01,CLR,,0.01,WeatherDisplay:10.37,2013-01-03 10:13:00,
2013-01-03 05:18:00,63.6,63.3,30.02,ESE,120,0.0,0.0,99,0.01,CLR,,0.01,WeatherDisplay:10.37,2013-01-03 10:18:00,
2013-01-03 05:23:00,63.5,63.2,30.02,SE,128,0.0,1.1,99,0.01,CLR,,0.01,WeatherDisplay:10.37,2013-01-03 10:23:00,
2013-01-03 05:28:00,63.5,63.2,30.02,SE,128,0.0,0.0,99,0.00,CLR,,0.01,WeatherDisplay:10.37,2013-01-03 10:28:00,
2013-01-03 05:33:00,63.5,63.2,30.02,ESE,118,0.0,1.1,99,0.00,CLR,,0.01,WeatherDisplay:10.37,2013-01-03 10:33:00,
2013-01-03 05:38:00,63.5,63.2,30.03,ESE,117,0.0,0.0,99,0.00,CLR,,0.01,WeatherDisplay:10.37,2013-01-03 10:38:00,
2013-01-03 05:43:00,63.5,63.2,30.03,ESE,108,0.5,0.0,99,0.00,CLR,,0.01,WeatherDisplay:10.37,2013-01-03 10:43:00,
2013-01-03 05:48:00,63.5,63.2,30.03,ESE,117,0.0,1.1,99,0.00,CLR,,0.01,WeatherDisplay:10.37,2013-01-03 10:48:00,
2013-01-03 05:53:00,63.6,63.3,30.03,ESE,117,0.1,1.1,99,0.00,CLR,,0.01,WeatherDisplay:10.37,2013-01-03 10:53:00,
2013-01-03 05:58:00,63.7,63.4,30.03,ESE,113,0.5,1.1,99,0.00,CLR,,0.01,WeatherDisplay:10.37,2013-01-03 10:58:00,
2013-01-03 06:03:00,63.8,63.5,30.03,ESE,117,0.4,2.3,99,0.00,CLR,,0.01,WeatherDisplay:10.37,2013-01-03 11:03:00,
2013-01-03 06:08:00,63.8,63.5,30.04,SE,137,0.0,0.0,99,0.00,CLR,,0.01,WeatherDisplay:10.37,2013-01-03 11:08:00,
2013-01-03 06:13:00,63.9,63.6,30.04,ESE,118,0.0,1.1,99,0.00,CLR,,0.01,WeatherDisplay:10.37,2013-01-03 11:13:00,
2013-01-03 06:18:00,63.9,63.6,30.04,ESE,120,0.0,0.0,99,0.00,CLR,,0.01,WeatherDisplay:10.37,2013-01-03 11:18:00,
2013-01-03 06:23:00,63.9,63.6,30.04,ESE,118,0.0,0.0,99,0.00,CLR,,0.01,WeatherDisplay:10.37,2013-01-03 11:23:00,
2013-01-03 06:28:00,63.9,63.6,30.04,SE,133,0.0,0.0,99,0.00,CLR,,0.01,WeatherDisplay:10.37,2013-01-03 11:28:00,
2013-01-03 06:30:00,65.7,64.8,30.07,North,7,3.0,8.0,97,0.00,RA,RA,0.03,WeatherDisplay:10.37,2013-01-03 11:30:00,
2013-01-03 07:10:00,66.0,65.1,30.08,NNE,22,2.0,6.0,97,0.00,CLR,CLR,0.03,WeatherDisplay:10.37,2013-01-03 12:10:00,
2013-01-03 07:20:00,66.0,65.1,30.08,NNE,22,2.0,6.0,97,0.00,CLR,CLR,0.03,WeatherDisplay:10.37,2013-01-03 12:20:00,
2013-01-03 07:30:00,66.0,65.1,30.08,NNE,22,2.0,6.0,97,0.00,CLR,CLR,0.03,WeatherDisplay:10.37,2013-01-03 12:30:00,
2013-01-03 07:40:00,65.9,65.0,30.09,NNE,22,2.0,7.0,97,0.00,CLR,CLR,0.03,WeatherDisplay:10.37,2013-01-03 12:40:00,
2013-01-03 07:41:00,63.6,63.3,30.06,SE,127,0.9,3.5,99,0.00,CLR,,0.01,WeatherDisplay:10.37,2013-01-03 12:41:00,
2013-01-03 07:46:00,63.5,63.2,30.06,SE,129,0.7,2.3,99,0.00,CLR,,0.01,WeatherDisplay:10.37,2013-01-03 12:46:00,
2013-01-03 07:50:00,65.9,65.0,30.09,NNE,22,2.0,7.0,97,0.00,CLR,CLR,0.03,WeatherDisplay:10.37,2013-01-03 12:50:00,
2013-01-03 07:51:00,63.4,63.1,30.06,SE,124,0.7,2.3,99,0.00,CLR,,0.01,WeatherDisplay:10.37,2013-01-03 12:51:00,
2013-01-03 07:56:00,63.2,62.9,30.06,SE,126,0.3,1.1,99,0.00,CLR,,0.01,WeatherDisplay:10.37,2013-01-03 12:56:00,
2013-01-03 08:00:00,65.9,65.0,30.09,NNE,22,2.0,7.0,97,0.00,CLR,CLR,0.03,WeatherDisplay:10.37,2013-01-03 13:00:00,
2013-01-03 08:01:00,63.2,62.9,30.06,SE,130,0.3,1.1,99,0.00,CLR,,0.01,WeatherDisplay:10.37,2013-01-03 13:01:00,
2013-01-03 08:06:00,63.1,62.8,30.06,ESE,113,1.2,3.5,99,0.00,CLR,,0.01,WeatherDisplay:10.37,2013-01-03 13:06:00,
2013-01-03 08:10:00,66.1,65.2,30.10,NNE,22,2.0,8.0,97,0.00,CLR,CLR,0.03,WeatherDisplay:10.37,2013-01-03 13:10:00,
2013-01-03 08:11:00,63.2,62.9,30.07,SSW,193,0.8,2.3,99,0.00,CLR,,0.01,WeatherDisplay:10.37,2013-01-03 13:11:00,
2013-01-03 08:16:00,63.2,62.9,30.07,ESE,122,0.0,0.0,99,0.00,CLR,,0.01,WeatherDisplay:10.37,2013-01-03 13:16:00,
2013-01-03 08:20:00,66.1,65.2,30.10,NNE,22,2.0,8.0,97,0.00,CLR,CLR,0.03,WeatherDisplay:10.37,2013-01-03 13:20:00,
2013-01-03 08:21:00,63.3,63.0,30.07,ESE,120,0.5,1.1,99,0.00,,,0.01,WeatherDisplay:10.37,2013-01-03 13:21:00,
2013-01-03 08:30:00,66.1,65.2,30.10,NNE,22,2.0,8.0,97,0.00,CLR,CLR,0.03,WeatherDisplay:10.37,2013-01-03 13:30:00,
2013-01-03 08:40:00,63.5,63.2,30.07,ESE,119,2.1,3.5,99,0.00,,,0.01,WeatherDisplay:10.37,2013-01-03 13:40:00,
2013-01-03 08:45:00,63.6,63.3,30.08,SE,131,0.0,1.1,99,0.00,,,0.01,WeatherDisplay:10.37,2013-01-03 13:45:00,
2013-01-03 08:50:00,63.7,63.4,30.08,ESE,116,0.9,2.3,99,0.00,,,0.01,WeatherDisplay:10.37,2013-01-03 13:50:00,
2013-01-03 08:55:00,63.8,63.5,30.07,SE,127,0.9,3.5,99,0.00,,,0.01,WeatherDisplay:10.37,2013-01-03 13:55:00,
2013-01-03 09:00:00,63.9,63.6,30.08,ESE,121,1.1,3.5,99,0.00,,,0.01,WeatherDisplay:10.37,2013-01-03 14:00:00,
2013-01-03 09:05:00,64.2,63.9,30.07,SE,124,1.8,3.5,99,0.00,,,0.01,WeatherDisplay:10.37,2013-01-03 14:05:00,
2013-01-03 09:10:00,64.5,64.2,30.07,ESE,120,1.6,3.5,99,0.00,,,0.01,WeatherDisplay:10.37,2013-01-03 14:10:00,
2013-01-03 09:15:00,64.8,64.5,30.07,ESE,108,2.3,3.5,99,0.00,,,0.01,WeatherDisplay:10.37,2013-01-03 14:15:00,
2013-01-03 09:20:00,65.1,64.8,30.07,SSE,163,1.5,5.8,99,0.00,,,0.01,WeatherDisplay:10.37,2013-01-03 14:20:00,
2013-01-03 09:25:00,65.6,65.3,30.08,ESE,123,2.8,3.5,99,0.00,,,0.01,WeatherDisplay:10.37,2013-01-03 14:25:00,
2013-01-03 09:30:00,66.2,65.9,30.07,SE,143,1.8,3.5,99,0.00,,,0.01,WeatherDisplay:10.37,2013-01-03 14:30:00,
2013-01-03 09:40:00,63.7,62.8,30.11,NNE,22,3.0,12.0,97,0.03,CLR,CLR,0.10,WeatherDisplay:10.37,2013-01-03 14:40:00,
2013-01-03 09:50:00,63.7,62.8,30.11,NNE,22,3.0,12.0,97,0.03,CLR,CLR,0.10,WeatherDisplay:10.37,2013-01-03 14:50:00,
2013-01-03 10:00:00,63.7,62.8,30.11,NNE,22,3.0,12.0,97,0.03,CLR,CLR,0.10,WeatherDisplay:10.37,2013-01-03 15:00:00,
2013-01-03 10:10:00,62.8,61.9,30.12,NNE,22,3.0,11.0,97,0.01,CLR,CLR,0.10,WeatherDisplay:10.37,2013-01-03 15:10:00,
2013-01-03 10:20:00,62.8,61.9,30.12,NNE,22,3.0,11.0,97,0.01,CLR,CLR,0.10,WeatherDisplay:10.37,2013-01-03 15:20:00,
2013-01-03 10:30:00,62.8,61.9,30.12,NNE,22,3.0,11.0,97,0.01,CLR,CLR,0.10,WeatherDisplay:10.37,2013-01-03 15:30:00,
2013-01-03 10:40:00,62.1,61.5,30.12,NNE,22,3.0,13.0,98,0.00,CLR,CLR,0.10,WeatherDisplay:10.37,2013-01-03 15:40:00,
2013-01-03 10:50:00,62.1,61.5,30.12,NNE,22,3.0,13.0,98,0.00,CLR,CLR,0.10,WeatherDisplay:10.37,2013-01-03 15:50:00,
2013-01-03 11:00:00,62.1,61.5,30.12,NNE,22,3.0,13.0,98,0.00,CLR,CLR,0.10,WeatherDisplay:10.37,2013-01-03 16:00:00,
2013-01-03 11:10:00,60.3,59.4,30.13,NNE,22,3.0,11.0,97,0.00,CLR,CLR,0.10,WeatherDisplay:10.37,2013-01-03 16:10:00,
2013-01-03 11:20:00,60.3,59.4,30.13,NNE,22,3.0,11.0,97,0.00,CLR,CLR,0.10,WeatherDisplay:10.37,2013-01-03 16:20:00,
2013-01-03 11:30:00,60.3,59.4,30.13,NNE,22,3.0,11.0,97,0.00,CLR,CLR,0.10,WeatherDisplay:10.37,2013-01-03 16:30:00,
2013-01-03 11:40:00,59.7,58.8,30.13,NNE,22,3.0,11.0,97,0.00,CLR,CLR,0.10,WeatherDisplay:10.37,2013-01-03 16:40:00,
2013-01-03 11:50:00,59.7,58.8,30.13,NNE,22,3.0,11.0,97,0.00,CLR,CLR,0.10,WeatherDisplay:10.37,2013-01-03 16:50:00,
2013-01-03 12:00:00,59.7,58.8,30.13,NNE,22,3.0,11.0,97,0.00,CLR,CLR,0.10,WeatherDisplay:10.37,2013-01-03 17:00:00,
2013-01-03 12:10:00,59.5,58.9,30.13,NNE,22,3.0,8.0,98,0.00,CLR,CLR,0.00,WeatherDisplay:10.37,2013-01-03 17:10:00,
2013-01-03 12:20:00,59.5,58.9,30.13,NNE,22,3.0,8.0,98,0.00,CLR,CLR,0.00,WeatherDisplay:10.37,2013-01-03 17:20:00,
2013-01-03 12:30:00,59.5,58.9,30.13,NNE,22,3.0,8.0,98,0.00,CLR,CLR,0.00,WeatherDisplay:10.37,2013-01-03 17:30:00,
2013-01-03 12:40:00,59.3,58.7,30.13,NNE,22,3.0,9.0,98,0.00,CLR,CLR,0.00,WeatherDisplay:10.37,2013-01-03 17:40:00,
2013-01-03 12:50:00,59.3,58.7,30.13,NNE,22,3.0,9.0,98,0.00,CLR,CLR,0.00,WeatherDisplay:10.37,2013-01-03 17:50:00,
2013-01-03 12:59:00,79.2,63.6,30.02,SW,217,5.7,9.2,59,0.00,,,0.01,WeatherDisplay:10.37,2013-01-03 17:59:00,
2013-01-03 13:00:00,59.3,58.7,30.13,NNE,22,3.0,9.0,98,0.00,CLR,CLR,0.00,WeatherDisplay:10.37,2013-01-03 18:00:00,
2013-01-03 13:04:00,78.8,63.7,30.02,SSW,197,4.2,8.0,60,0.00,,,0.01,WeatherDisplay:10.37,2013-01-03 18:04:00,
2013-01-03 13:09:00,78.5,63.9,30.02,SW,224,3.9,4.6,61,0.00,,,0.01,WeatherDisplay:10.37,2013-01-03 18:09:00,
2013-01-03 13:10:00,59.3,58.7,30.12,NNE,22,2.0,8.0,98,0.00,CLR,CLR,0.00,WeatherDisplay:10.37,2013-01-03 18:10:00,
2013-01-03 13:14:00,78.1,64.0,30.02,SSW,203,3.2,6.9,62,0.00,,,0.01,WeatherDisplay:10.37,2013-01-03 18:14:00,
2013-01-03 13:19:00,77.8,64.2,30.03,SSW,210,2.8,6.9,63,0.00,,,0.01,WeatherDisplay:10.37,2013-01-03 18:19:00,
2013-01-03 13:20:00,59.3,58.7,30.12,NNE,22,2.0,8.0,98,0.00,CLR,CLR,0.00,WeatherDisplay:10.37,2013-01-03 18:20:00,
2013-01-03 13:24:00,77.6,64.9,30.03,SSW,197,5.2,7.0,65,0.00,,,0.01,WeatherDisplay:10.37,2013-01-03 18:24:00,
2013-01-03 13:29:00,77.3,65.1,30.02,SW,224,3.4,4.6,66,0.00,,,0.01,WeatherDisplay:10.37,2013-01-03 18:29:00,
2013-01-03 13:30:00,59.3,58.7,30.12,NNE,22,2.0,8.0,98,0.00,CLR,CLR,0.00,WeatherDisplay:10.37,2013-01-03 18:30:00,
2013-01-03 13:34:00,77.2,66.2,30.03,SW,232,3.4,9.2,69,0.00,,,0.01,WeatherDisplay:10.37,2013-01-03 18:34:00,
2013-01-03 13:39:00,77.3,66.7,30.02,SSW,203,5.9,5.9,70,0.00,,,0.01,WeatherDisplay:10.37,2013-01-03 18:39:00,
2013-01-03 13:40:00,59.0,58.2,30.13,NNE,22,3.0,10.0,97,0.00,CLR,CLR,0.00,WeatherDisplay:10.37,2013-01-03 18:40:00,
2013-01-03 13:44:00,77.3,66.3,30.01,South,172,3.9,7.0,69,0.00,SCT,,0.01,WeatherDisplay:10.37,2013-01-03 18:44:00,
2013-01-03 13:49:00,77.5,66.1,30.01,SSW,200,6.3,6.9,68,0.00,SCT,,0.01,WeatherDisplay:10.37,2013-01-03 18:49:00,
2013-01-03 13:50:00,59.0,58.2,30.13,NNE,22,3.0,10.0,97,0.00,CLR,CLR,0.00,WeatherDisplay:10.37,2013-01-03 18:50:00,
2013-01-03 13:54:00,77.5,66.1,30.01,SW,216,3.9,9.2,68,0.00,SCT,,0.01,WeatherDisplay:10.37,2013-01-03 18:54:00,
2013-01-03 13:59:00,77.2,66.2,30.01,SW,225,6.9,11.0,69,0.00,SCT,,0.01,WeatherDisplay:10.37,2013-01-03 18:59:00,
2013-01-03 14:00:00,59.0,58.2,30.13,NNE,22,3.0,10.0,97,0.00,CLR,CLR,0.00,WeatherDisplay:10.37,2013-01-03 19:00:00,
2013-01-03 14:04:00,76.8,65.9,30.01,South,190,7.8,10.4,69,0.00,SCT,,0.01,WeatherDisplay:10.37,2013-01-03 19:04:00,
2013-01-03 14:09:00,76.5,66.0,30.01,SW,232,5.3,10.4,70,0.00,SCT,,0.01,WeatherDisplay:10.37,2013-01-03 19:09:00,
2013-01-03 14:10:00,59.0,58.2,30.13,NNE,22,3.0,11.0,97,0.00,CLR,CLR,0.00,WeatherDisplay:10.37,2013-01-03 19:10:00,
2013-01-03 14:14:00,76.4,65.9,30.01,SE,139,7.1,10.4,70,0.00,SCT,,0.01,WeatherDisplay:10.37,2013-01-03 19:14:00,
2013-01-03 14:19:00,76.5,66.4,30.01,SSE,158,7.3,9.2,71,0.00,SCT,,0.01,WeatherDisplay:10.37,2013-01-03 19:19:00,
2013-01-03 14:20:00,59.0,58.2,30.13,NNE,22,3.0,11.0,97,0.00,CLR,CLR,0.00,WeatherDisplay:10.37,2013-01-03 19:20:00,
2013-01-03 14:30:00,59.0,58.2,30.13,NNE,22,3.0,11.0,97,0.00,CLR,CLR,0.00,WeatherDisplay:10.37,2013-01-03 19:30:00,
2013-01-03 14:40:00,59.1,58.2,30.13,NNE,22,5.0,10.0,97,0.00,CLR,CLR,0.00,WeatherDisplay:10.37,2013-01-03 19:40:00,
2013-01-03 14:50:00,59.1,58.2,30.13,NNE,22,5.0,10.0,97,0.00,CLR,CLR,0.00,WeatherDisplay:10.37,2013-01-03 19:50:00,
2013-01-03 14:55:00,75.0,66.5,30.00,West,259,4.1,7.0,75,0.00,SCT,,0.01,WeatherDisplay:10.37,2013-01-03 19:55:00,
2013-01-03 15:00:00,74.9,66.4,30.01,SSW,204,2.2,3.5,75,0.00,SCT,,0.01,WeatherDisplay:10.37,2013-01-03 20:00:00,
2013-01-03 15:05:00,74.8,67.1,30.01,SSE,158,3.3,6.9,77,0.00,SCT,,0.01,WeatherDisplay:10.37,2013-01-03 20:05:00,
2013-01-03 15:10:00,74.6,67.7,30.01,South,170,3.9,6.9,79,0.00,SCT,,0.01,WeatherDisplay:10.37,2013-01-03 20:10:00,
2013-01-03 15:15:00,74.4,67.8,30.00,West,269,3.4,8.1,80,0.00,SCT,,0.01,WeatherDisplay:10.37,2013-01-03 20:15:00,
2013-01-03 15:20:00,74.2,68.0,30.01,SW,226,4.2,6.9,81,0.00,SCT,,0.01,WeatherDisplay:10.37,2013-01-03 20:20:00,
2013-01-03 15:25:00,74.1,68.3,30.01,SSE,148,0.7,3.5,82,0.00,SCT,,0.01,WeatherDisplay:10.37,2013-01-03 20:25:00,
2013-01-03 15:30:00,74.0,68.2,30.01,South,169,4.2,5.0,82,0.00,SCT,,0.01,WeatherDisplay:10.37,2013-01-03 20:30:00,
2013-01-03 15:35:00,74.0,68.2,30.01,South,188,2.1,3.5,82,0.00,SCT,,0.01,WeatherDisplay:10.37,2013-01-03 20:35:00,
2013-01-03 15:40:00,73.8,68.3,30.01,SSE,164,3.5,5.8,83,0.00,SCT,,0.01,WeatherDisplay:10.37,2013-01-03 20:40:00,
2013-01-03 15:45:00,73.7,68.2,30.01,SSE,158,4.9,9.2,83,0.00,OVC,,0.01,WeatherDisplay:10.37,2013-01-03 20:45:00,
2013-01-03 15:50:00,73.6,68.5,30.01,WSW,249,1.0,2.3,84,0.00,OVC,,0.01,WeatherDisplay:10.37,2013-01-03 20:50:00,
2013-01-03 15:55:00,73.6,68.5,30.02,SW,217,1.3,2.3,84,0.00,OVC,,0.01,WeatherDisplay:10.37,2013-01-03 20:55:00,
2013-01-03 16:00:00,73.6,68.5,30.02,West,273,1.4,2.3,84,0.00,OVC,,0.01,WeatherDisplay:10.37,2013-01-03 21:00:00,
2013-01-03 16:05:00,73.4,68.3,30.02,NW,326,0.3,2.3,84,0.00,OVC,,0.01,WeatherDisplay:10.37,2013-01-03 21:05:00,
2013-01-03 16:10:00,73.3,68.5,30.03,NW,307,1.8,5.0,85,0.00,OVC,,0.01,WeatherDisplay:10.37,2013-01-03 21:10:00,
2013-01-03 16:15:00,71.4,66.0,30.03,North,359,0.8,2.3,83,0.00,OVC,,0.01,WeatherDisplay:10.37,2013-01-03 21:15:00,
2013-01-03 16:20:00,69.8,65.4,30.03,NNW,333,1.8,3.5,86,0.00,OVC,,0.01,WeatherDisplay:10.37,2013-01-03 21:20:00,
2013-01-03 16:25:00,68.6,65.2,30.03,NW,323,1.4,3.5,89,0.01,RA,,0.02,WeatherDisplay:10.37,2013-01-03 21:25:00,
2013-01-03 16:30:00,67.9,65.2,30.04,NNE,15,1.5,2.3,91,0.01,OVC,,0.02,WeatherDisplay:10.37,2013-01-03 21:30:00,
2013-01-03 16:35:00,67.5,65.1,30.03,NNW,333,0.9,3.5,92,0.02,OVC,,0.03,WeatherDisplay:10.37,2013-01-03 21:35:00,
2013-01-03 16:40:00,67.3,65.5,30.04,NNW,340,1.6,3.0,94,0.02,OVC,,0.03,WeatherDisplay:10.37,2013-01-03 21:40:00,
2013-01-03 16:45:00,66.9,65.1,30.04,NNW,333,1.8,3.5,94,0.02,OVC,,0.03,WeatherDisplay:10.37,2013-01-03 21:45:00,
2013-01-03 16:50:00,58.3,57.5,30.13,NNE,22,5.0,13.0,97,0.00,CLR,CLR,0.00,WeatherDisplay:10.37,2013-01-03 21:50:00,
2013-01-03 17:00:00,58.3,57.5,30.13,NNE,22,5.0,13.0,97,0.00,CLR,CLR,0.00,WeatherDisplay:10.37,2013-01-03 22:00:00,
2013-01-03 17:10:00,58.0,57.2,30.14,NNE,22,5.0,14.0,97,0.00,CLR,CLR,0.00,WeatherDisplay:10.37,2013-01-03 22:10:00,
2013-01-03 17:20:00,58.0,57.2,30.14,NNE,22,5.0,14.0,97,0.00,CLR,CLR,0.00,WeatherDisplay:10.37,2013-01-03 22:20:00,
2013-01-03 17:30:00,58.0,57.2,30.14,NNE,22,5.0,14.0,97,0.00,CLR,CLR,0.00,WeatherDisplay:10.37,2013-01-03 22:30:00,
2013-01-03 17:40:00,57.9,56.8,30.15,NNE,22,5.0,12.0,96,0.00,CLR,CLR,0.00,WeatherDisplay:10.37,2013-01-03 22:40:00,
2013-01-03 17:50:00,57.9,56.8,30.15,NNE,22,5.0,12.0,96,0.00,CLR,CLR,0.00,WeatherDisplay:10.37,2013-01-03 22:50:00,
2013-01-03 18:00:00,57.9,56.8,30.15,NNE,22,5.0,12.0,96,0.00,CLR,CLR,0.00,WeatherDisplay:10.37,2013-01-03 23:00:00,
2013-01-03 18:10:00,57.6,56.5,30.15,NNE,22,5.0,13.0,96,0.00,CLR,CLR,0.00,WeatherDisplay:10.37,2013-01-03 23:10:00,
2013-01-03 18:20:00,57.6,56.5,30.15,NNE,22,5.0,13.0,96,0.00,CLR,CLR,0.00,WeatherDisplay:10.37,2013-01-03 23:20:00,
2013-01-03 18:30:00,57.6,56.5,30.15,NNE,22,5.0,13.0,96,0.00,CLR,CLR,0.00,WeatherDisplay:10.37,2013-01-03 23:30:00,
2013-01-03 18:40:00,57.4,56.6,30.16,NNE,22,3.0,9.0,97,0.00,CLR,CLR,0.00,WeatherDisplay:10.37,2013-01-03 23:40:00,
2013-01-03 18:50:00,57.4,56.6,30.16,NNE,22,3.0,9.0,97,0.00,CLR,CLR,0.00,WeatherDisplay:10.37,2013-01-03 23:50:00,
2013-01-03 19:00:00,57.4,56.6,30.16,NNE,22,3.0,9.0,97,0.00,CLR,CLR,0.00,WeatherDisplay:10.37,2013-01-04 00:00:00,
2013-01-03 19:10:00,56.8,56.0,30.18,NNE,22,5.0,9.0,97,0.01,CLR,CLR,0.01,WeatherDisplay:10.37,2013-01-04 00:10:00,
2013-01-03 19:20:00,56.8,56.0,30.18,NNE,22,5.0,9.0,97,0.01,CLR,CLR,0.01,WeatherDisplay:10.37,2013-01-04 00:20:00,
2013-01-03 19:30:00,56.8,56.0,30.18,NNE,22,5.0,9.0,97,0.01,CLR,CLR,0.01,WeatherDisplay:10.37,2013-01-04 00:30:00,
2013-01-03 19:40:00,56.5,55.7,30.19,NNE,22,3.0,11.0,97,0.01,CLR,CLR,0.01,WeatherDisplay:10.37,2013-01-04 00:40:00,
2013-01-03 19:50:00,56.5,55.7,30.19,NNE,22,3.0,11.0,97,0.01,CLR,CLR,0.01,WeatherDisplay:10.37,2013-01-04 00:50:00,
2013-01-03 20:00:00,56.5,55.7,30.19,NNE,22,3.0,11.0,97,0.01,CLR,CLR,0.01,WeatherDisplay:10.37,2013-01-04 01:00:00,
2013-01-03 20:10:00,56.7,56.1,30.19,NNE,22,3.0,9.0,98,0.00,CLR,CLR,0.01,WeatherDisplay:10.37,2013-01-04 01:10:00,
2013-01-03 20:20:00,56.7,56.1,30.19,NNE,22,3.0,9.0,98,0.00,CLR,CLR,0.01,WeatherDisplay:10.37,2013-01-04 01:20:00,
2013-01-03 20:30:00,56.7,56.1,30.19,NNE,22,3.0,9.0,98,0.00,CLR,CLR,0.01,WeatherDisplay:10.37,2013-01-04 01:30:00,
2013-01-03 20:40:00,56.9,56.1,30.21,NE,45,3.0,11.0,97,0.00,CLR,CLR,0.01,WeatherDisplay:10.37,2013-01-04 01:40:00,
2013-01-03 20:50:00,56.9,56.1,30.21,NE,45,3.0,11.0,97,0.00,CLR,CLR,0.01,WeatherDisplay:10.37,2013-01-04 01:50:00,
2013-01-03 21:00:00,56.9,56.1,30.21,NE,45,3.0,11.0,97,0.00,CLR,CLR,0.01,WeatherDisplay:10.37,2013-01-04 02:00:00,
2013-01-03 21:10:00,57.0,56.2,30.22,NNE,22,3.0,11.0,97,0.00,CLR,CLR,0.01,WeatherDisplay:10.37,2013-01-04 02:10:00,
2013-01-03 21:20:00,57.0,56.2,30.22,NNE,22,3.0,11.0,97,0.00,CLR,CLR,0.01,WeatherDisplay:10.37,2013-01-04 02:20:00,
2013-01-03 21:30:00,57.0,56.2,30.22,NNE,22,3.0,11.0,97,0.00,CLR,CLR,0.01,WeatherDisplay:10.37,2013-01-04 02:30:00,
2013-01-03 21:40:00,57.2,56.1,30.24,NNE,22,3.0,12.0,96,0.00,CLR,CLR,0.01,WeatherDisplay:10.37,2013-01-04 02:40:00,
2013-01-03 21:50:00,57.2,56.1,30.24,NNE,22,3.0,12.0,96,0.00,CLR,CLR,0.01,WeatherDisplay:10.37,2013-01-04 02:50:00,
2013-01-03 22:00:00,57.2,56.1,30.24,NNE,22,3.0,12.0,96,0.00,CLR,CLR,0.01,WeatherDisplay:10.37,2013-01-04 03:00:00,
2013-01-03 22:10:00,57.6,56.5,30.23,NNE,22,3.0,10.0,96,0.00,CLR,CLR,0.01,WeatherDisplay:10.37,2013-01-04 03:10:00,
2013-01-03 22:20:00,57.6,56.5,30.23,NNE,22,3.0,10.0,96,0.00,CLR,CLR,0.01,WeatherDisplay:10.37,2013-01-04 03:20:00,
2013-01-03 22:30:00,57.6,56.5,30.23,NNE,22,3.0,10.0,96,0.00,CLR,CLR,0.01,WeatherDisplay:10.37,2013-01-04 03:30:00,
2013-01-03 22:40:00,58.0,56.6,30.23,NNE,22,3.0,11.0,95,0.00,CLR,CLR,0.01,WeatherDisplay:10.37,2013-01-04 03:40:00,
2013-01-03 22:50:00,58.0,56.6,30.23,NNE,22,3.0,11.0,95,0.00,CLR,CLR,0.01,WeatherDisplay:10.37,2013-01-04 03:50:00,
2013-01-03 23:00:00,58.0,56.6,30.23,NNE,22,3.0,11.0,95,0.00,CLR,CLR,0.01,WeatherDisplay:10.37,2013-01-04 04:00:00,
2013-01-03 23:10:00,58.9,56.9,30.23,NE,45,3.0,13.0,93,0.00,CLR,CLR,0.01,WeatherDisplay:10.37,2013-01-04 04:10:00,
2013-01-03 23:20:00,58.9,56.9,30.23,NE,45,3.0,13.0,93,0.00,CLR,CLR,0.01,WeatherDisplay:10.37,2013-01-04 04:20:00,
2013-01-03 23:30:00,58.9,56.9,30.23,NE,45,3.0,13.0,93,0.00,CLR,CLR,0.01,WeatherDisplay:10.37,2013-01-04 04:30:00,